| time (UTC) | temp F | wind direction | speed MPH | gust MPH | rain 1hr in | rain 24hr in | rain mn in | humidity % | barometer mb |
| 20260906171537 | 54 | 311 | 0.0 | 4.0 | 0.02 | 0.26 | 0.26 | 89 | 1013.5 |
| 20260906170034 | 54 | 285 | 2.0 | 5.0 | 0.03 | 0.26 | 0.26 | 91 | 1013.4 |
| 20260906164533 | 53 | 170 | 1.0 | 2.0 | 0.03 | 0.26 | 0.26 | 93 | 1013.6 |
| 20260906163031 | 53 | 170 | 1.0 | 3.0 | 0.02 | 0.25 | 0.25 | 94 | 1013.6 |
| 20260906161531 | 53 | 38 | 1.0 | 4.0 | 0.02 | 0.24 | 0.24 | 94 | 1013.7 |
| 20260906160034 | 53 | 34 | 2.0 | 6.0 | 0.03 | 0.23 | 0.23 | 94 | 1013.5 |
| 20260906154529 | 53 | 12 | 4.0 | 7.0 | 0.06 | 0.23 | 0.23 | 94 | 1013.5 |
| 20260906153030 | 53 | 10 | 3.0 | 6.0 | 0.08 | 0.23 | 0.23 | 93 | 1013.6 |
| 20260906151527 | 53 | 68 | 1.0 | 4.0 | 0.09 | 0.22 | 0.22 | 92 | 1013.6 |
| 20260906150028 | 53 | 68 | 2.0 | 4.0 | 0.10 | 0.20 | 0.20 | 91 | 1013.5 |
| 20260906144526 | 53 | 110 | 2.0 | 5.0 | 0.09 | 0.17 | 0.17 | 91 | 1013.6 |
| 20260906143023 | 53 | 144 | 3.0 | 5.0 | 0.09 | 0.15 | 0.15 | 92 | 1013.4 |
| 20260906141523 | 53 | 163 | 4.0 | 6.0 | 0.09 | 0.13 | 0.13 | 92 | 1013.2 |
| 20260906140022 | 53 | 160 | 5.0 | 7.0 | 0.08 | 0.10 | 0.10 | 91 | 1013.1 |
| 20260906134521 | 53 | 169 | 5.0 | 7.0 | 0.08 | 0.08 | 0.08 | 90 | 1012.8 |
| 20260906133019 | 53 | 176 | 6.0 | 8.0 | 0.06 | 0.06 | 0.06 | 89 | 1012.6 |
| 20260906131519 | 53 | 200 | 3.0 | 7.0 | 0.04 | 0.04 | 0.04 | 90 | 1012.4 |
| 20260906130018 | 53 | 206 | 5.0 | 6.0 | 0.02 | 0.02 | 0.02 | 89 | 1012.4 |
| 20260906124515 | 53 | 194 | 2.0 | 5.0 | 0.00 | 0.00 | 0.00 | 89 | 1012.5 |
| 20260906123017 | 54 | 209 | 1.0 | 4.0 | 0.00 | 0.00 | 0.00 | 87 | 1012.5 |
| 20260906121516 | 54 | 213 | 4.0 | 6.0 | 0.00 | 0.00 | 0.00 | 87 | 1012.4 |
| 20260906120013 | 54 | 205 | 2.0 | 6.0 | 0.00 | 0.00 | 0.00 | 86 | 1012.4 |
| 20260906114523 | 54 | 203 | 3.0 | 7.0 | 0.00 | 0.00 | 0.00 | 84 | 1012.5 |
| 20260906113017 | 54 | 204 | 4.0 | 8.0 | 0.00 | 0.00 | 0.00 | 83 | 1012.6 |
| 20260906111511 | 54 | 198 | 5.0 | 9.0 | 0.00 | 0.00 | 0.00 | 84 | 1012.7 |
| 20260906110010 | 54 | 207 | 7.0 | 9.0 | 0.00 | 0.00 | 0.00 | 83 | 1012.7 |
| 20260906104514 | 54 | 238 | 6.0 | 8.0 | 0.00 | 0.00 | 0.00 | 81 | 1012.6 |
| 20260906103007 | 55 | 267 | 6.0 | 10.0 | 0.00 | 0.00 | 0.00 | 78 | 1012.5 |
| 20260906101516 | 56 | 247 | 5.0 | 10.0 | 0.00 | 0.00 | 0.00 | 77 | 1012.5 |
| 20260906100006 | 56 | 259 | 7.0 | 10.0 | 0.00 | 0.00 | 0.00 | 77 | 1012.6 |
| 20260906094504 | 55 | 288 | 0.0 | 3.0 | 0.00 | 0.00 | 0.00 | 78 | 1012.6 |
| 20260906093002 | 55 | 210 | 2.0 | 6.0 | 0.00 | 0.00 | 0.00 | 75 | 1012.7 |
| 20260906091503 | 55 | 171 | 7.0 | 11.0 | 0.00 | 0.00 | 0.00 | 73 | 1012.9 |
| 20260906090002 | 56 | 194 | 11.0 | 14.0 | 0.00 | 0.00 | 0.00 | 75 | 1012.9 |
| 20260906084559 | 55 | 196 | 8.0 | 10.0 | 0.00 | 0.00 | 0.00 | 75 | 1012.8 |
| 20260906083058 | 56 | 233 | 1.0 | 6.0 | 0.00 | 0.00 | 0.00 | 74 | 1012.6 |
| 20260906081557 | 56 | 236 | 6.0 | 9.0 | 0.00 | 0.00 | 0.00 | 74 | 1012.5 |
| 20260906074553 | 55 | 206 | 6.0 | 7.0 | 0.00 | 0.00 | 0.00 | 69 | 1013.0 |
| 20260906073054 | 55 | 217 | 6.0 | 8.0 | 0.00 | 0.00 | 0.00 | 69 | 1013.0 |
| 20260906071553 | 55 | 215 | 5.0 | 6.0 | 0.00 | 0.00 | 0.00 | 67 | 1013.0 |
| 20260906070046 | 56 | 214 | 0.0 | 0.0 | 0.00 | 0.00 | 0.00 | 65 | 1013.1 |
| 20260906064550 | 56 | 214 | 0.0 | 0.0 | 0.00 | 0.00 | 0.00 | 66 | 1013.1 |
| 20260906063046 | 56 | 214 | 0.0 | 0.0 | 0.00 | 0.00 | 0.00 | 66 | 1013.1 |
| 20260906061545 | 56 | 214 | 0.0 | 2.0 | 0.00 | 0.00 | 0.00 | 66 | 1013.1 |
| 20260906060045 | 55 | 214 | 0.0 | 0.0 | 0.00 | 0.00 | 0.00 | 67 | 1013.1 |
| 20260906054557 | 56 | 214 | 2.0 | 3.0 | 0.00 | 0.00 | 0.00 | 66 | 1013.2 |
| 20260906053044 | 55 | 214 | 2.0 | 3.0 | 0.00 | 0.00 | 0.00 | 68 | 1013.3 |
| 20260906051603 | 55 | 214 | 4.0 | 5.0 | 0.00 | 0.00 | 0.00 | 67 | 1013.3 |
| 20260906050045 | 57 | 205 | 2.0 | 3.0 | 0.00 | 0.00 | 0.00 | 63 | 1013.3 |
| 20260906044550 | 56 | 119 | 0.0 | 2.0 | 0.00 | 0.00 | 0.00 | 64 | 1013.5 |
| 20260906043045 | 56 | 80 | 1.0 | 5.0 | 0.00 | 0.00 | 0.00 | 64 | 1013.4 |
| 20260906041542 | 56 | 83 | 1.0 | 3.0 | 0.00 | 0.00 | 0.00 | 62 | 1013.5 |
| 20260906040121 | 58 | 61 | 1.0 | 3.0 | 0.00 | 0.00 | 0.00 | 59 | 1013.5 |
| 20260906034540 | 60 | 85 | 2.0 | 5.0 | 0.00 | 0.00 | 0.00 | 57 | 1013.3 |
| 20260906033054 | 60 | 83 | 2.0 | 5.0 | 0.00 | 0.00 | 0.00 | 57 | 1013.3 |
| 20260906031540 | 61 | 101 | 2.0 | 3.0 | 0.00 | 0.00 | 0.00 | 55 | 1013.1 |
| 20260906030039 | 61 | 80 | 2.0 | 4.0 | 0.00 | 0.00 | 0.00 | 55 | 1013.0 |
| 20260906024539 | 62 | 83 | 2.0 | 5.0 | 0.00 | 0.00 | 0.00 | 52 | 1012.9 |
| 20260906023037 | 64 | 56 | 2.0 | 5.0 | 0.00 | 0.00 | 0.00 | 49 | 1012.8 |
| 20260906021538 | 65 | 46 | 4.0 | 7.0 | 0.00 | 0.00 | 0.00 | 47 | 1012.7 |
| 20260906020038 | 66 | 68 | 3.0 | 7.0 | 0.00 | 0.00 | 0.00 | 45 | 1012.7 |
| 20260906014536 | 67 | 69 | 3.0 | 5.0 | 0.00 | 0.00 | 0.00 | 43 | 1012.9 |
| 20260906013035 | 67 | 355 | 2.0 | 7.0 | 0.00 | 0.00 | 0.00 | 43 | 1013.0 |
| 20260906011535 | 68 | 68 | 7.0 | 10.0 | 0.00 | 0.00 | 0.00 | 43 | 1012.9 |
| 20260906010035 | 69 | 360 | 7.0 | 11.0 | 0.00 | 0.00 | 0.00 | 42 | 1013.0 |
| 20260906004534 | 69 | 94 | 6.0 | 11.0 | 0.00 | 0.00 | 0.00 | 41 | 1013.0 |
| 20260906003033 | 69 | 89 | 7.0 | 11.0 | 0.00 | 0.00 | 0.00 | 42 | 1013.0 |
| 20260906001534 | 69 | 52 | 4.0 | 9.0 | 0.00 | 0.00 | 0.00 | 42 | 1012.9 |
| 20260906000031 | 68 | 37 | 8.0 | 12.0 | 0.00 | 0.00 | 0.00 | 43 | 1012.9 |
| 20260905234529 | 69 | 69 | 6.0 | 13.0 | 0.00 | 0.00 | 0.00 | 42 | 1012.9 |
| 20260905233029 | 68 | 44 | 8.0 | 10.0 | 0.00 | 0.00 | 0.00 | 43 | 1013.0 |
| 20260905231528 | 69 | 49 | 4.0 | 10.0 | 0.00 | 0.00 | 0.00 | 43 | 1013.1 |
| 20260905230027 | 69 | 69 | 5.0 | 11.0 | 0.00 | 0.00 | 0.00 | 44 | 1013.4 |
| 20260905224602 | 68 | 49 | 3.0 | 13.0 | 0.00 | 0.00 | 0.00 | 46 | 1013.3 |
| 20260905223024 | 68 | 17 | 5.0 | 10.0 | 0.00 | 0.00 | 0.00 | 46 | 1013.5 |
| 20260905221522 | 68 | 40 | 6.0 | 14.0 | 0.00 | 0.00 | 0.00 | 46 | 1013.6 |
| 20260905220021 | 67 | 61 | 6.0 | 12.0 | 0.00 | 0.00 | 0.00 | 46 | 1013.6 |
| 20260905214518 | 67 | 72 | 7.0 | 13.0 | 0.00 | 0.00 | 0.00 | 48 | 1013.8 |
| 20260905213018 | 66 | 17 | 5.0 | 15.0 | 0.00 | 0.00 | 0.00 | 50 | 1013.9 |
| 20260905211537 | 66 | 53 | 7.0 | 12.0 | 0.00 | 0.00 | 0.00 | 52 | 1014.2 |
| 20260905210023 | 65 | 18 | 2.0 | 9.0 | 0.00 | 0.00 | 0.00 | 53 | 1014.2 |
| 20260905204516 | 65 | 122 | 6.0 | 14.0 | 0.00 | 0.00 | 0.00 | 51 | 1014.2 |
| 20260905203014 | 65 | 44 | 5.0 | 14.0 | 0.00 | 0.00 | 0.00 | 53 | 1014.3 |
| 20260905201513 | 65 | 360 | 4.0 | 10.0 | 0.00 | 0.00 | 0.00 | 52 | 1014.3 |
| 20260905200020 | 63 | 67 | 5.0 | 16.0 | 0.00 | 0.00 | 0.00 | 53 | 1014.5 |
| 20260905194511 | 63 | 61 | 4.0 | 14.0 | 0.00 | 0.00 | 0.00 | 54 | 1014.6 |
| 20260905193010 | 62 | 29 | 6.0 | 14.0 | 0.00 | 0.00 | 0.00 | 55 | 1014.7 |
| 20260905191508 | 62 | 78 | 9.0 | 16.0 | 0.00 | 0.00 | 0.00 | 57 | 1014.9 |
| 20260905190007 | 63 | 73 | 8.0 | 15.0 | 0.00 | 0.00 | 0.00 | 57 | 1014.9 |
| 20260905184515 | 63 | 72 | 10.0 | 12.0 | 0.00 | 0.00 | 0.00 | 56 | 1015.0 |
| 20260905183005 | 62 | 83 | 6.0 | 15.0 | 0.00 | 0.00 | 0.00 | 56 | 1015.1 |
| 20260905181505 | 63 | 90 | 7.0 | 13.0 | 0.00 | 0.00 | 0.00 | 56 | 1015.1 |
| 20260905180005 | 62 | 41 | 3.0 | 5.0 | 0.00 | 0.00 | 0.00 | 60 | 1015.2 |
| 20260905174558 | 60 | 360 | 1.0 | 4.0 | 0.00 | 0.00 | 0.00 | 64 | 1015.2 |
| 20260905173116 | 60 | 22 | 1.0 | 5.0 | 0.00 | 0.00 | 0.00 | 65 | 1015.1 |